[[{"header":{"parameterUnit":"m.s-1","parameterCategory":1,"la1":30.2992,"la2":30.254,"lo1":-89.0895,"lo2":-89.0443,"dy":0.0025,"dx":0.0025,"nx":19,"ny":19,"refTime":"2026-04-28T21:00:00:Z","depth":0,"parameterNumber":2,"parameterNumberName":"U-component_of_WINDS"},"data":[0,0,0,2.1081,2.1083,2.1181,2.1182,2.1304,2.1305,0,0,0,0,0,0,0,0,0,0,0,2.1052,2.1053,2.1081,2.1083,2.1181,2.1182,2.1304,2.1305,0,0,0,0,0,0,0,0,0,0,0,2.1051,2.1052,2.1053,2.1084,2.1181,2.1182,2.1304,2.123,0,0,0,0,0,0,0,0,0,0,2.1135,2.1109,2.1052,2.1053,2.1084,2.1181,2.1182,2.1227,2.1235,2.1259,0,2.1281,0,2.1295,2.1313,2.1314,0,0,0,2.1083,2.1102,2.1129,2.1054,2.1085,2.1181,2.1137,2.1231,2.1241,2.1269,2.1283,2.1287,2.1297,2.1314,2.1315,2.1452,2.1453,0,0,2.1078,2.1069,2.1122,2.1134,2.1121,2.1134,2.114,2.1237,2.1251,2.1283,2.129,2.1299,2.1315,2.1316,2.1452,2.1452,0,0,0,2.1062,2.1065,2.109,2.1129,2.1147,2.1137,2.1144,2.1246,2.1255,2.1292,2.13,2.1315,2.1317,2.1451,2.1452,2.1474,0,0,0,2.1059,2.1056,2.1087,2.1083,2.1146,2.1198,2.1151,2.1248,2.126,2.13,2.1316,2.1318,2.145,2.1451,2.1472,2.1486,0,0,0,2.1045,2.1055,2.1069,2.1082,2.1124,2.1197,2.1211,2.1251,2.1265,2.1314,2.1318,2.145,2.1451,2.147,2.1483,2.1517,0,0,0,2.1028,2.1088,2.1069,2.1139,2.1123,2.1211,2.1211,2.1276,2.1321,2.1316,2.145,2.1452,2.1469,2.1481,2.1515,2.1544,2.1556,0,0,2.1099,2.1096,2.1138,2.1124,2.1212,2.1196,2.1287,2.1337,2.135,2.1417,2.142,2.1472,2.1482,2.1517,2.1627,2.1636,0,0,0,2.1158,2.1187,2.1213,2.1255,2.1294,2.1327,2.1363,2.1381,2.1438,2.1383,2.1496,2.1502,2.1522,2.1537,2.1544,2.1562,2.1458,2.1458,2.1458,2.1245,2.1257,2.1326,2.135,2.139,2.1426,2.1459,2.1489,2.1491,2.1517,2.1536,2.1602,2.1618,2.1624,2.1642,2.1554,2.1554,2.1554,2.1554,2.1348,2.1391,2.139,2.1457,2.1469,2.1525,2.156,2.1559,2.1611,2.1588,2.1607,2.158,2.1634,2.165,2.1556,2.1556,2.1555,2.1555,2.1555,2.1405,2.1428,2.1448,2.1508,2.1552,2.1574,2.1623,2.1633,2.1642,2.1661,2.1681,2.1681,2.168,2.167,2.1671,2.1671,2.1671,2.1671,2.1671,2.1456,2.1478,2.1519,2.1564,2.159,2.1627,2.1661,2.1687,2.1718,2.1721,2.1721,2.1718,2.1637,2.1616,2.1675,2.1674,2.1674,2.1673,2.1673,2.1554,2.1532,2.1596,2.1623,2.1674,2.1716,2.1727,2.1779,2.1801,2.1825,2.1818,2.1757,2.1755,2.1749,2.1731,2.1816,2.1816,2.1816,2.1816,2.16,2.16,2.1666,2.1707,2.1749,2.1765,2.1833,2.1859,2.1883,2.1897,2.1886,2.1864,2.1857,2.1859,2.1851,2.1834,2.1944,2.1944,2.1944,2.166,2.1664,2.1722,2.1745,2.1785,2.1819,2.1883,2.1928,2.1951,2.1949,2.1908,2.1903,2.1866,2.1854,2.1851,2.1838,2.1807,0,0]},{"header":{"parameterUnit":"m.s-1","parameterCategory":1,"la1":30.2992,"la2":30.254,"lo1":-89.0895,"lo2":-89.0443,"dy":0.0025,"dx":0.0025,"nx":19,"ny":19,"refTime":"2026-04-28T21:00:00:Z","depth":0,"parameterNumber":3,"parameterNumberName":"V-component_of_WINDS"},"data":[0,0,0,4.7372,4.7375,4.7516,4.7517,4.7698,4.77,0,0,0,0,0,0,0,0,0,0,0,4.7332,4.7333,4.7372,4.7375,4.7516,4.7517,4.7698,4.77,0,0,0,0,0,0,0,0,0,0,0,4.7331,4.7333,4.7335,4.7376,4.7516,4.7517,4.7698,4.7591,0,0,0,0,0,0,0,0,0,0,4.7453,4.7418,4.7333,4.7335,4.7377,4.7516,4.7517,4.7585,4.7597,4.7635,0,4.767,0,4.7688,4.7712,4.7713,0,0,0,4.7374,4.7408,4.7445,4.7335,4.7378,4.7516,4.7452,4.7592,4.7605,4.7651,4.7673,4.7679,4.7691,4.7713,4.7714,4.794,4.7941,0,0,4.7366,4.7358,4.7436,4.7454,4.7433,4.7448,4.7457,4.76,4.7623,4.7673,4.7684,4.7694,4.7715,4.7716,4.7939,4.794,0,0,0,4.7345,4.7353,4.7386,4.7446,4.7472,4.7452,4.7462,4.7617,4.7628,4.7686,4.7696,4.7716,4.7718,4.7938,4.7939,4.7987,0,0,0,4.734,4.734,4.7382,4.7379,4.7469,4.7546,4.7476,4.7618,4.7635,4.7695,4.7716,4.772,4.7936,4.7938,4.7983,4.8011,0,0,0,4.7322,4.7338,4.7359,4.7378,4.7439,4.7544,4.7564,4.7622,4.7641,4.7713,4.772,4.7936,4.7938,4.798,4.8005,4.8067,0,0,0,4.7301,4.74,4.736,4.7474,4.7437,4.7573,4.7563,4.7664,4.7731,4.7717,4.7937,4.7939,4.7978,4.8001,4.8063,4.8118,4.814,0,0,4.7421,4.7414,4.7482,4.745,4.7591,4.7552,4.7699,4.7768,4.7782,4.7886,4.7892,4.7984,4.8005,4.8066,4.8268,4.8285,0,0,0,4.7517,4.7566,4.7605,4.7669,4.7724,4.7774,4.7821,4.7846,4.7935,4.7834,4.8024,4.8036,4.8073,4.8099,4.8114,4.8146,4.7951,4.7951,4.7951,4.7676,4.7689,4.7802,4.7831,4.7893,4.7941,4.7992,4.8034,4.8029,4.8073,4.8104,4.8225,4.8256,4.8267,4.83,4.8134,4.8135,4.8135,4.8135,4.7854,4.7924,4.7914,4.8021,4.8033,4.8122,4.8171,4.8164,4.8248,4.8203,4.8236,4.8185,4.8286,4.8315,4.8139,4.8138,4.8138,4.8137,4.8137,4.7959,4.7995,4.8024,4.8117,4.8188,4.8214,4.8295,4.8303,4.8311,4.8344,4.8377,4.8376,4.8376,4.8359,4.8359,4.836,4.836,4.8361,4.8361,4.8056,4.8088,4.8155,4.8222,4.8264,4.8319,4.8368,4.8409,4.8456,4.8456,4.8456,4.8445,4.8294,4.8255,4.8367,4.8366,4.8365,4.8365,4.8364,4.823,4.8192,4.8297,4.8339,4.8417,4.8485,4.8495,4.8577,4.8612,4.8652,4.8635,4.8521,4.8514,4.8502,4.847,4.8632,4.8632,4.8632,4.8632,4.8319,4.8316,4.8424,4.849,4.8556,4.8575,4.8691,4.8729,4.8763,4.8785,4.8763,4.8721,4.8709,4.8709,4.8693,4.8663,4.887,4.887,4.887,4.8426,4.843,4.8528,4.8561,4.8622,4.8675,4.8784,4.8859,4.8889,4.888,4.8802,4.8792,4.8725,4.8703,4.8692,4.8666,4.8612,0,0]}]]